Iowa City, IA

1:45 PM CST on December 05, 2019 (GMT -0600)
Iowa City Municipal

Weather History for KIOW - October, 2019

Change the Weather History Date:

Friday, October 18, 2019

  Actual Average Record
Temperature  
Mean Temperature 56 °F 51 °F  
Max Temperature 70 °F 62 °F 94 °F (1950)
Min Temperature 41 °F 41 °F 16 °F (1952)
Degree Days  
Heating Degree Days 9 14  
Month to date heating degree days 206 200  
Since 1 July heating degree days 213 312  
Cooling Degree Days 0 0  
Month to date cooling degree days 18 10  
Year to date cooling degree days 1175 912  
Growing Degree Days 5 (Base 50)    
Moisture  
Dew Point 41 °F    
Average Humidity 61    
Maximum Humidity 82    
Minimum Humidity 40    
Precipitation  
Precipitation 0.00 in 0.09 in 1.60 in (1984)
Month to date precipitation 1.60 1.64  
Year to date precipitation 38.57 31.18  
Sea Level Pressure  
Sea Level Pressure 29.89 in    
Wind  
Wind Speed 11 mph (SE)    
Max Wind Speed 23 mph    
Max Gust Speed 36 mph    
Visibility 10 miles    
Events Rain    
T = Trace of Precipitation, MM = Missing Value Source: NWS Daily Summary

Daily Weather History Graph

Daily Weather History Graph

Search for Another Location

Airport or City:

Astronomy

Oct. 18, 2019 Rise Set
Actual Time 7:21 AM CDT 6:20 PM CDT
Civil Twilight 6:53 AM CDT 6:48 PM CDT
Nautical Twilight 6:21 AM CDT 7:20 PM CDT
Astronomical Twilight 5:48 AM CDT 7:52 PM CDT
Moon 9:34 PM CDT (10/18) 11:57 AM CDT (10/18)
Length of Visible Light 11h 55m
Length of Day
10h 59m
Waning Gibbous, 78% of the Moon is Illuminated
Oct 18
Waning Gibbous
Oct 21
Last Quarter
Oct 27
New
Nov 4
First Quarter
Nov 12
Full

Hourly Weather History & Observations

Time (CDT) Temp. Windchill Dew Point Humidity Pressure Visibility Wind Dir Wind Speed Gust Speed Precip Events Conditions
12:52 AM 41.0 °F 39.0 °F 35.1 °F 79% 30.01 in 10.0 mi SSE 3.5 mph - N/A   Clear
1:52 AM 42.1 °F 40.2 °F 36.0 °F 79% 30.00 in 10.0 mi SE 3.5 mph - N/A   Clear
2:52 AM 42.1 °F 39.2 °F 36.0 °F 79% 29.99 in 10.0 mi ESE 4.6 mph - N/A   Clear
3:52 AM 42.1 °F 38.4 °F 36.0 °F 79% 29.98 in 10.0 mi SE 5.8 mph - N/A   Clear
4:52 AM 42.1 °F 38.4 °F 37.0 °F 82% 29.98 in 10.0 mi ESE 5.8 mph - N/A   Clear
5:52 AM 43.0 °F 38.8 °F 37.0 °F 80% 29.96 in 10.0 mi SE 6.9 mph - N/A   Clear
6:52 AM 43.0 °F 38.8 °F 37.0 °F 80% 29.97 in 10.0 mi SE 6.9 mph - N/A   Clear
7:52 AM 44.1 °F 39.0 °F 37.9 °F 79% 29.97 in 10.0 mi SE 9.2 mph - N/A   Clear
8:52 AM 46.9 °F - 39.9 °F 77% 29.96 in 10.0 mi SE 10.4 mph - N/A   Clear
9:52 AM 52.0 °F - 41.0 °F 66% 29.95 in 10.0 mi SSE 12.7 mph 21.9 mph N/A   Clear
10:52 AM 57.0 °F - 43.0 °F 59% 29.94 in 10.0 mi SSE 13.8 mph - N/A   Clear
11:52 AM 61.0 °F - 45.0 °F 56% 29.92 in 10.0 mi SSE 12.7 mph 25.3 mph N/A   Clear
12:52 PM 64.9 °F - 46.0 °F 50% 29.89 in 10.0 mi South 15.0 mph - N/A   Clear
1:52 PM 68.0 °F - 44.1 °F 42% 29.85 in 10.0 mi SSE 19.6 mph 31.1 mph N/A   Clear
2:52 PM 69.1 °F - 44.1 °F 40% 29.83 in 10.0 mi SSE 19.6 mph 28.8 mph N/A   Clear
3:52 PM 68.0 °F - 44.1 °F 42% 29.80 in 10.0 mi SSE 21.9 mph 31.1 mph 0.00 in Rain Light Rain
4:52 PM 66.9 °F - 45.0 °F 45% 29.79 in 10.0 mi SSE 16.1 mph 24.2 mph 0.00 in   Clear
5:52 PM 64.0 °F - 44.1 °F 48% 29.78 in 10.0 mi SE 15.0 mph - N/A   Clear
6:52 PM 59.0 °F - 44.1 °F 58% 29.80 in 10.0 mi SE 9.2 mph - N/A   Clear
7:52 PM 57.0 °F - 43.0 °F 59% 29.80 in 10.0 mi SE 9.2 mph - N/A   Clear
8:52 PM 55.9 °F - 43.0 °F 62% 29.79 in 10.0 mi SE 11.5 mph - N/A   Clear
9:52 PM 55.0 °F - 43.0 °F 64% 29.80 in 10.0 mi SE 10.4 mph - N/A   Clear
10:52 PM 54.0 °F - 43.0 °F 66% 29.80 in 10.0 mi SE 8.1 mph - N/A   Clear
11:52 PM 53.1 °F - 42.1 °F 66% 29.81 in 10.0 mi SSE 6.9 mph - N/A   Clear